When you browse on this site, cookies collect data to enhance your experience and personalize the content and advertising you see.
Visit our Privacy Policy to learn more. By continuing to use the site, you agree to this use of cookies and data.

Hourly Weather Padang

Today, 12 July, Sunday

Time Temperature Precipitation Wind Pressure Humidity
00:00 +26°C° 0.5 mm 2 mps 757 mmHg 96%
01:00 +26°C° 0 mm 2 mps 757 mmHg 95%
02:00 +26°C° 0.5 mm 2 mps 757 mmHg 95%
03:00 +26°C° 0.5 mm 2 mps 757 mmHg 95%
04:00 +26°C° 0.5 mm 1 mps 756 mmHg 95%
05:00 +26°C° 0 mm 1 mps 756 mmHg 95%
06:00 +26°C° 0 mm 1 mps 757 mmHg 94%
07:00 +26°C° 0 mm 1 mps 757 mmHg 93%
08:00 +28°C° 0.2 mm 1 mps 757 mmHg 84%
09:00 +31°C° 0.2 mm 1 mps 757 mmHg 74%
10:00 +33°C° 0.2 mm 1 mps 758 mmHg 65%
11:00 +32°C° 0.6 mm 1 mps 757 mmHg 72%
12:00 +32°C° 0.6 mm 2 mps 757 mmHg 79%
13:00 +31°C° 0.6 mm 2 mps 756 mmHg 85%
14:00 +31°C° 0.9 mm 2 mps 756 mmHg 86%
15:00 +30°C° 0.9 mm 2 mps 755 mmHg 86%
16:00 +30°C° 0.9 mm 2 mps 755 mmHg 86%
17:00 +29°C° 1 mm 2 mps 755 mmHg 90%
18:00 +28°C° 1 mm 2 mps 756 mmHg 93%
19:00 +27°C° 1 mm 2 mps 756 mmHg 97%
20:00 +27°C° 1 mm 2 mps 757 mmHg 97%
21:00 +27°C° 1 mm 1 mps 757 mmHg 96%
22:00 +27°C° 1 mm 1 mps 758 mmHg 96%
23:00 +26°C° 1.3 mm 1 mps 758 mmHg 96%

Tomorrow, 13 July, Monday

Time Temperature Precipitation Wind Pressure Humidity
00:00 +26°C° 1.3 mm 1 mps 758 mmHg 96%
01:00 +26°C° 1.3 mm 1 mps 757 mmHg 95%
02:00 +26°C° 1 mm 1 mps 757 mmHg 96%
03:00 +26°C° 1 mm 1 mps 757 mmHg 96%
04:00 +26°C° 1 mm 1 mps 756 mmHg 96%
05:00 +26°C° 0.5 mm 2 mps 757 mmHg 96%
06:00 +26°C° 0.5 mm 2 mps 757 mmHg 96%
07:00 +26°C° 0.5 mm 2 mps 757 mmHg 96%
08:00 +27°C° 1.4 mm 3 mps 758 mmHg 97%
09:00 +27°C° 1.4 mm 4 mps 758 mmHg 98%
10:00 +27°C° 1.4 mm 4 mps 759 mmHg 98%
11:00 +27°C° 0.5 mm 4 mps 758 mmHg 97%
12:00 +27°C° 0.5 mm 3 mps 758 mmHg 95%
13:00 +27°C° 0.5 mm 3 mps 757 mmHg 94%
14:00 +27°C° 0.1 mm 3 mps 757 mmHg 93%
15:00 +27°C° 0.1 mm 3 mps 757 mmHg 93%
16:00 +27°C° 0.1 mm 3 mps 756 mmHg 92%
17:00 +27°C° 0 mm 3 mps 756 mmHg 91%
18:00 +27°C° 0 mm 3 mps 757 mmHg 90%
19:00 +27°C° 0 mm 3 mps 757 mmHg 89%
20:00 +27°C° 0 mm 3 mps 757 mmHg 87%
21:00 +27°C° 0 mm 3 mps 757 mmHg 86%
22:00 +27°C° 0 mm 3 mps 758 mmHg 84%
23:00 +27°C° 0 mm 3 mps 757 mmHg 83%

Day after tomorrow, 14 July, Tuesday

Time Temperature Precipitation Wind Pressure Humidity
00:00 +27°C° 0 mm 2 mps 757 mmHg 82%
01:00 +27°C° 0 mm 2 mps 756 mmHg 81%
02:00 +27°C° 0 mm 2 mps 756 mmHg 78%
03:00 +27°C° 0 mm 2 mps 755 mmHg 76%
04:00 +27°C° 0 mm 2 mps 755 mmHg 74%
05:00 +27°C° 0 mm 2 mps 755 mmHg 73%
06:00 +27°C° 0 mm 2 mps 755 mmHg 72%
07:00 +27°C° 0 mm 2 mps 756 mmHg 71%
08:00 +29°C° 0 mm 2 mps 756 mmHg 66%
09:00 +31°C° 0 mm 2 mps 756 mmHg 60%
10:00 +34°C° 0 mm 2 mps 757 mmHg 55%
11:00 +34°C° 0 mm 2 mps 756 mmHg 55%
12:00 +35°C° 0 mm 2 mps 756 mmHg 56%
13:00 +35°C° 0 mm 2 mps 755 mmHg 56%
14:00 +34°C° 0.1 mm 2 mps 755 mmHg 62%
15:00 +32°C° 0.1 mm 1 mps 755 mmHg 69%
16:00 +32°C° 0.1 mm 1 mps 754 mmHg 75%
17:00 +30°C° 0.2 mm 1 mps 755 mmHg 82%
18:00 +29°C° 0.2 mm 1 mps 755 mmHg 88%
19:00 +28°C° 0.2 mm 1 mps 756 mmHg 95%
20:00 +27°C° 0 mm 1 mps 756 mmHg 95%
21:00 +27°C° 0 mm 1 mps 757 mmHg 94%
22:00 +27°C° 0 mm 1 mps 757 mmHg 94%
23:00 +27°C° 0.2 mm 1 mps 757 mmHg 95%

15 July, Wednesday

Time Temperature Precipitation Wind Pressure Humidity
00:00 +27°C° 0.2 mm 2 mps 757 mmHg 95%
01:00 +26°C° 0.2 mm 2 mps 757 mmHg 96%
02:00 +26°C° 0 mm 2 mps 756 mmHg 96%
03:00 +26°C° 0 mm 2 mps 756 mmHg 95%
04:00 +26°C° 0 mm 2 mps 756 mmHg 95%
05:00 +26°C° 0 mm 2 mps 756 mmHg 95%
06:00 +26°C° 0 mm 1 mps 756 mmHg 94%
07:00 +26°C° 0 mm 1 mps 756 mmHg 94%
08:00 +28°C° 0 mm 1 mps 756 mmHg 84%
09:00 +31°C° 0 mm 1 mps 756 mmHg 74%
10:00 +33°C° 0 mm 1 mps 757 mmHg 63%
11:00 +33°C° 0.2 mm 1 mps 756 mmHg 67%
12:00 +34°C° 0.2 mm 2 mps 756 mmHg 70%
13:00 +34°C° 0.2 mm 2 mps 755 mmHg 74%
14:00 +32°C° 0.6 mm 2 mps 754 mmHg 78%
15:00 +32°C° 0.6 mm 2 mps 754 mmHg 83%
16:00 +31°C° 0.6 mm 2 mps 753 mmHg 87%
17:00 +30°C° 0.7 mm 1 mps 754 mmHg 90%
18:00 +29°C° 0.7 mm 1 mps 754 mmHg 93%
19:00 +27°C° 0.7 mm 1 mps 755 mmHg 97%
20:00 +27°C° 0.4 mm 1 mps 755 mmHg 96%
21:00 +27°C° 0.4 mm 1 mps 756 mmHg 96%
22:00 +26°C° 0.4 mm 2 mps 757 mmHg 96%
23:00 +26°C° 0 mm 2 mps 756 mmHg 95%

16 July, Thursday

Time Temperature Precipitation Wind Pressure Humidity
00:00 +26°C° 0 mm 2 mps 756 mmHg 95%
01:00 +26°C° 0 mm 2 mps 755 mmHg 95%
02:00 +26°C° 0 mm 2 mps 755 mmHg 94%
03:00 +26°C° 0 mm 1 mps 755 mmHg 93%
04:00 +26°C° 0 mm 1 mps 754 mmHg 92%
05:00 +26°C° 0 mm 1 mps 755 mmHg 90%
06:00 +26°C° 0 mm 1 mps 755 mmHg 88%
07:00 +26°C° 0 mm 1 mps 755 mmHg 86%
08:00 +29°C° 0 mm 1 mps 755 mmHg 78%
09:00 +31°C° 0 mm 1 mps 756 mmHg 69%
10:00 +33°C° 0 mm 1 mps 756 mmHg 61%
11:00 +34°C° 0.1 mm 1 mps 756 mmHg 62%
12:00 +35°C° 0.1 mm 2 mps 755 mmHg 63%
13:00 +35°C° 0.1 mm 2 mps 755 mmHg 65%
14:00 +33°C° 0.8 mm 1 mps 754 mmHg 72%
15:00 +32°C° 0.8 mm 1 mps 754 mmHg 79%
16:00 +31°C° 0.8 mm 1 mps 753 mmHg 87%
17:00 +30°C° 0.2 mm 1 mps 754 mmHg 90%
18:00 +29°C° 0.2 mm 1 mps 754 mmHg 92%
19:00 +26°C° 0.2 mm 0 mps 755 mmHg 95%
20:00 +28°C° 0.2 mm 1 mps 755 mmHg 95%
21:00 +27°C° 0.2 mm 1 mps 756 mmHg 94%
22:00 +27°C° 0.2 mm 1 mps 756 mmHg 94%
23:00 +27°C° 0.3 mm 1 mps 756 mmHg 94%

17 July, Friday

Time Temperature Precipitation Wind Pressure Humidity
00:00 +26°C° 0.3 mm 1 mps 756 mmHg 94%
01:00 +26°C° 0.3 mm 2 mps 756 mmHg 94%
02:00 +26°C° 0.2 mm 1 mps 755 mmHg 94%
03:00 +26°C° 0.2 mm 1 mps 755 mmHg 93%
04:00 +26°C° 0.2 mm 1 mps 755 mmHg 93%
05:00 +26°C° 0.2 mm 1 mps 755 mmHg 93%
06:00 +26°C° 0.2 mm 1 mps 755 mmHg 92%
07:00 +27°C° 0.2 mm 1 mps 756 mmHg 92%
08:00 +28°C° 0.5 mm 1 mps 756 mmHg 85%
09:00 +30°C° 0.5 mm 1 mps 756 mmHg 78%
10:00 +32°C° 0.5 mm 1 mps 757 mmHg 72%
11:00 +32°C° 1.5 mm 2 mps 756 mmHg 79%
12:00 +31°C° 1.5 mm 2 mps 756 mmHg 86%
13:00 +30°C° 1.5 mm 2 mps 755 mmHg 93%
14:00 +30°C° 2.3 mm 2 mps 755 mmHg 94%
15:00 +29°C° 2.3 mm 2 mps 755 mmHg 94%
16:00 +29°C° 2.3 mm 2 mps 754 mmHg 95%
17:00 +28°C° 1.9 mm 2 mps 755 mmHg 96%
18:00 +27°C° 1.9 mm 2 mps 755 mmHg 96%
19:00 +27°C° 1.9 mm 2 mps 756 mmHg 97%
20:00 +26°C° 2.3 mm 2 mps 756 mmHg 97%
21:00 +26°C° 2.3 mm 2 mps 757 mmHg 98%
22:00 +26°C° 2.3 mm 2 mps 758 mmHg 98%
23:00 +26°C° 0.6 mm 1 mps 757 mmHg 98%
Show more